Location: Spring Creek
(38.2870°N, 100.2160°W)
Time: 23:50:08
(UTC+00:00)

USA 215 - Pass Details

Date: 08 May 2021
Orbit: 1100 x 1107 km, 123.0° (Epoch: 14 June)

Event Time Altitude Azimuth Distance (km) Brightness Sun altitude
Exits shadow 07:36:39 46° 296° (WNW) 1,447 3.8 -32.8°
Drops below altitude 10° 07:41:06 10° 311° (NW) 2,960 5.7 -32.6°
Sets 07:43:36 0° 314° (NW) 3,921 6.5 -32.4°
